Location: �perlecques
(50.8057°N, 2.1521°E)
Time: 07:44:27
(UTC+00:00)

STARS - Pass Details

Date: 08 April 2023
Orbit: 616 x 630 km, 98.1° (Epoch: 03 June)

Event Time Altitude Azimuth Distance (km) Brightness Sun altitude
Rises 00:07:00 0° 7° (N) 2,922 ? -32.1°
Reaches altitude 10° 00:09:20 10° 359° (N) 2,013 ? -32.1°
Enters shadow 00:11:45 26° 334° (NNW) 1,240 ? -32.0°
